[[{"header":{"parameterUnit":"m.s-1","parameterCategory":1,"la1":30.2991,"la2":30.254,"lo1":-89.0895,"lo2":-89.0444,"dy":0.0017,"dx":0.0017,"nx":28,"ny":28,"refTime":"2024-03-31T03:00:00:Z","depth":0,"parameterNumber":2,"parameterNumberName":"U-component_of_WINDS"},"data":[0,0,0,0,0,0,0,0,0,0,0,0,0,0,0,0,0,0,0,0,0,0,0,0,0,0,0,0,0,0,0,0,0,0,0,0,0,0,0,0,0,0,0,0,0,0,0,0,0,0,0,0,0,0,0,0,0,0,-2.9531,-2.953,0,-2.9473,-2.9472,-2.9472,-2.9402,-2.9401,-2.94,-2.9399,-2.9339,-2.9338,-2.9338,0,0,0,0,0,0,0,0,0,0,0,0,0,-2.9581,-2.9581,-2.9531,-2.953,-2.953,-2.9473,-2.9472,-2.9472,-2.9403,-2.9401,-2.94,-2.9399,-2.9339,-2.9339,-2.9338,0,0,0,0,0,0,0,0,0,0,0,0,0,-2.9545,-2.9581,-2.9531,-2.9488,-2.9484,-2.9473,-2.9472,-2.9471,-2.9403,-2.9401,-2.94,-2.9398,-2.934,-2.9339,-2.9338,-2.9364,0,0,-2.9335,-2.9335,0,0,0,0,0,0,0,0,-2.9547,-2.9543,-2.9495,-2.9491,-2.9486,-2.9443,-2.9468,-2.9435,-2.9403,-2.9434,-2.9399,-2.9397,-2.9375,-2.9371,-2.9364,-2.9361,-2.9359,-2.9335,-2.9334,-2.9334,-2.9334,0,0,0,0,0,0,0,-2.955,-2.9545,-2.9508,-2.9495,-2.9489,-2.9472,-2.9465,-2.9461,-2.9414,-2.9431,-2.9426,-2.942,-2.9372,-2.9365,-2.9362,-2.9358,-2.9335,-2.9334,-2.9333,-2.9333,-2.9373,-2.9374,0,0,0,0,0,0,-2.9559,-2.9548,-2.951,-2.9506,-2.9514,-2.9472,-2.9465,-2.9459,-2.9414,-2.9405,-2.9421,-2.9417,-2.9367,-2.9363,-2.9359,-2.9385,-2.9334,-2.9333,-2.9333,-2.9371,-2.9373,-2.9375,0,0,0,0,0,0,-2.956,-2.9556,-2.9512,-2.9526,-2.9519,-2.9473,-2.9467,-2.9458,-2.9451,-2.9407,-2.9398,-2.9422,-2.9366,-2.9361,-2.9363,-2.9383,-2.9333,-2.9332,-2.9369,-2.9372,-2.9374,-2.9439,0,0,0,0,0,0,-2.9562,-2.9557,-2.9567,-2.9526,-2.9518,-2.9517,-2.9468,-2.9458,-2.945,-2.9443,-2.9405,-2.9397,-2.9364,-2.9365,-2.9362,-2.938,-2.9331,-2.9367,-2.937,-2.9373,-2.9435,-2.9444,-2.9451,0,0,0,0,0,-2.9564,-2.9587,-2.9567,-2.9563,-2.9529,-2.9519,-2.9514,-2.9475,-2.9451,-2.946,-2.9432,-2.9399,-2.9382,-2.9366,-2.9362,-2.938,-2.9366,-2.9369,-2.9373,-2.9432,-2.9442,-2.9451,0,0,0,0,0,0,-2.9631,-2.9581,-2.9559,-2.957,-2.9549,-2.9507,-2.9517,-2.9488,-2.9473,-2.9467,-2.942,-2.9412,-2.942,-2.9401,-2.9384,-2.9403,-2.9369,-2.9372,-2.9415,-2.9424,-2.9432,-2.9435,-2.933,0,0,0,0,0,-2.9647,-2.9642,-2.96,-2.9614,-2.9604,-2.9563,-2.9557,-2.9529,-2.9505,-2.9496,-2.9467,-2.9446,-2.9435,-2.9429,-2.9417,-2.9433,-2.9423,-2.9444,-2.9452,-2.9459,-2.9461,-2.9467,-2.9475,-2.9387,-2.9387,-2.9387,0,0,-2.968,-2.9652,-2.9652,-2.9626,-2.9607,-2.9602,-2.9556,-2.9553,-2.9549,-2.9495,-2.9495,-2.9474,-2.9447,-2.9456,-2.9458,-2.944,-2.9484,-2.9463,-2.9469,-2.9467,-2.9471,-2.9479,-2.9487,-2.9389,-2.9389,-2.9388,0,0,-2.9737,-2.9717,-2.9725,-2.9707,-2.9678,-2.965,-2.9653,-2.9615,-2.9599,-2.9599,-2.9558,-2.9553,-2.9536,-2.9518,-2.9506,-2.9558,-2.9526,-2.9555,-2.9595,-2.9601,-2.9608,-2.9614,-2.963,-2.9637,-2.9559,-2.9559,-2.9559,0,-2.9781,-2.9773,-2.9733,-2.9733,-2.9722,-2.9674,-2.9682,-2.9666,-2.9635,-2.9629,-2.9609,-2.9587,-2.9565,-2.9568,-2.9581,-2.9574,-2.9574,-2.9558,-2.9611,-2.9616,-2.9621,-2.9636,-2.9643,-2.9562,-2.9562,-2.9561,-2.9561,0,-2.9828,-2.9823,-2.9834,-2.9805,-2.9796,-2.98,-2.976,-2.9756,-2.973,-2.9704,-2.9704,-2.9677,-2.9657,-2.9657,-2.9631,-2.9657,-2.9646,-2.962,-2.9584,-2.9634,-2.9647,-2.9652,-2.9567,-2.9566,-2.9565,-2.9564,0,0,-2.9923,-2.9873,-2.9877,-2.9863,-2.9828,-2.9823,-2.9826,-2.9808,-2.9804,-2.9785,-2.9784,-2.9772,-2.9747,-2.9734,-2.9706,-2.9712,-2.9752,-2.9684,-2.9683,-2.9696,-2.9776,-2.9795,-2.9802,-2.9732,-2.9733,-2.9734,-2.9778,0,-2.9971,-2.9971,-2.9936,-2.9946,-2.994,-2.9895,-2.9897,-2.9876,-2.9853,-2.9844,-2.9819,-2.981,-2.9779,-2.977,-2.9775,-2.9747,-2.9767,-2.9743,-2.973,-2.973,-2.9735,-2.9809,-2.9828,-2.9871,-2.9783,-2.9784,-2.9785,0,-3.0027,-3.0011,-3.0021,-2.9985,-2.9982,-2.9984,-2.9964,-2.9957,-2.9932,-2.9915,-2.9901,-2.987,-2.9869,-2.9837,-2.9835,-2.9819,-2.9812,-2.9798,-2.9798,-2.9793,-2.9758,-2.9803,-2.9884,-2.9889,-2.9793,-2.9792,-2.9792,0,-3.0093,-3.0074,-3.0076,-3.0066,-3.0026,-3.0028,-3.0011,-2.9985,-2.9976,-2.9959,-2.9953,-2.9937,-2.9927,-2.9915,-2.9879,-2.986,-2.988,-2.9846,-2.9864,-2.9865,-2.9868,-2.9868,-2.9945,-2.9868,-2.9868,-2.9868,-2.9868,0,-3.0149,-3.0156,-3.0105,-3.0106,-3.0113,-3.0073,-3.008,-3.0059,-3.0036,-3.0032,-2.9993,-2.999,-2.9945,-2.9937,-2.991,-2.9911,-2.9908,-2.9893,-2.9885,-2.9894,-2.9896,-2.9887,-2.9882,-2.987,-2.9869,-2.9869,-2.9869,0,-3.0222,-3.0188,-3.0188,-3.015,-3.0141,-3.0147,-3.0114,-3.0113,-3.0089,-3.0084,-3.0081,-3.0041,-3.003,-2.9995,-2.9974,-2.9956,-2.9964,-2.9951,-2.9972,-2.9967,-2.9986,-2.9984,-3.0058,-3.0065,-2.9987,-2.9987,-2.9988,0,-3.0258,-3.0262,-3.0225,-3.022,-3.0205,-3.0197,-3.0188,-3.0149,-3.0141,-3.0114,-3.0116,-3.0102,-3.0088,-3.0072,-3.0041,-3.0025,-3.001,-3.0037,-3.0007,-3.0017,-3.0007,-3.0006,-3.0006,-3.0043,-3.0044,-3.0045,-3.0046,0,-3.0326,-3.031,-3.0298,-3.0281,-3.0271,-3.0256,-3.0238,-3.0236,-3.0193,-3.0186,-3.0174,-3.0163,-3.0143,-3.0128,-3.0108,-3.009,-3.006,-3.0056,-3.0059,-3.0067,-3.0078,-3.007,-2.9987,-3.0053,-3.0053,-3.0052,-3.0052,-3.0051,-3.038,-3.0381,-3.0355,-3.0343,-3.0326,-3.0311,-3.0308,-3.0283,-3.0272,-3.0252,-3.0231,-3.0221,-3.0196,-3.0165,-3.015,-3.0141,-3.0125,-3.013,-3.0131,-3.0132,-3.0136,-3.0082,-3.0138,-3.0138,-3.0137,-3.0137,-3.0137,0,-3.0443,-3.0425,-3.0415,-3.0391,-3.0382,-3.0356,-3.0336,-3.0329,-3.0321,-3.0301,-3.0288,-3.0274,-3.026,-3.0229,-3.0212,-3.0211,-3.0197,-3.0208,-3.0206,-3.0202,-3.0152,-3.015,-3.022,-3.022,-3.022,-3.022,-3.022,-3.022,-3.0475,-3.0475,-3.0456,-3.0447,-3.0428,-3.0418,-3.0408,-3.0393,-3.0377,-3.0363,-3.0351,-3.0331,-3.0306,-3.0287,-3.0273,-3.0265,-3.0259,-3.0274,-3.0261,-3.0214,-3.0206,-3.0198,-3.0196,-3.0274,-3.0274,-3.0311,-3.0311,-3.0311]},{"header":{"parameterUnit":"m.s-1","parameterCategory":1,"la1":30.2991,"la2":30.254,"lo1":-89.0895,"lo2":-89.0444,"dy":0.0017,"dx":0.0017,"nx":28,"ny":28,"refTime":"2024-03-31T03:00:00:Z","depth":0,"parameterNumber":3,"parameterNumberName":"V-component_of_WINDS"},"data":[0,0,0,0,0,0,0,0,0,0,0,0,0,0,0,0,0,0,0,0,0,0,0,0,0,0,0,0,0,0,0,0,0,0,0,0,0,0,0,0,0,0,0,0,0,0,0,0,0,0,0,0,0,0,0,0,0,0,3.3328,3.3329,0,3.343,3.3431,3.3432,3.3489,3.3489,3.3489,3.3489,3.3591,3.3594,3.3596,0,0,0,0,0,0,0,0,0,0,0,0,0,3.3185,3.3187,3.3328,3.3329,3.3331,3.3429,3.3431,3.3432,3.3489,3.3489,3.3489,3.349,3.3591,3.3594,3.3597,0,0,0,0,0,0,0,0,0,0,0,0,0,3.3263,3.3188,3.3328,3.3371,3.3376,3.3429,3.3431,3.3432,3.3489,3.3489,3.3489,3.349,3.359,3.3593,3.3597,3.3615,0,0,3.3609,3.361,0,0,0,0,0,0,0,0,3.3258,3.3268,3.3363,3.3368,3.3374,3.3447,3.3418,3.3494,3.3489,3.3446,3.3489,3.349,3.3543,3.3551,3.3569,3.362,3.3624,3.3609,3.3611,3.3613,3.3614,0,0,0,0,0,0,0,3.3253,3.3264,3.3368,3.3365,3.3371,3.3386,3.3397,3.3432,3.3491,3.345,3.3454,3.3465,3.3546,3.3565,3.3572,3.3625,3.3609,3.3612,3.3615,3.3616,3.37,3.37,0,0,0,0,0,0,3.3241,3.3259,3.3365,3.3371,3.3316,3.3388,3.3401,3.3423,3.3491,3.3502,3.3465,3.3468,3.3559,3.3567,3.3576,3.3604,3.3613,3.3616,3.3619,3.37,3.37,3.37,0,0,0,0,0,0,3.3237,3.3249,3.3361,3.3316,3.3332,3.339,3.3415,3.3425,3.3444,3.3503,3.3514,3.3474,3.3559,3.357,3.3606,3.3608,3.3618,3.3622,3.37,3.37,3.37,3.3658,0,0,0,0,0,0,3.3233,3.3248,3.3255,3.3316,3.3334,3.3389,3.3415,3.3427,3.3451,3.3455,3.3514,3.3524,3.356,3.36,3.3609,3.3613,3.3625,3.37,3.37,3.37,3.3659,3.3656,3.3654,0,0,0,0,0,3.3228,3.3238,3.3255,3.3267,3.3344,3.3389,3.3399,3.3441,3.3451,3.3459,3.3497,3.3522,3.3606,3.3603,3.3614,3.3619,3.37,3.37,3.37,3.366,3.3657,3.3654,0,0,0,0,0,0,3.3173,3.3246,3.3266,3.3296,3.3336,3.3398,3.3409,3.3435,3.3472,3.3475,3.3525,3.3537,3.3569,3.3597,3.3593,3.3642,3.3656,3.3658,3.3622,3.3619,3.3616,3.3609,3.3628,0,0,0,0,0,3.3165,3.3196,3.3258,3.3278,3.3298,3.335,3.3371,3.34,3.3443,3.346,3.3501,3.3541,3.3578,3.36,3.3636,3.3664,3.3679,3.3673,3.367,3.3668,3.3669,3.3689,3.3688,3.3699,3.3699,3.3699,0,0,3.3148,3.3192,3.3207,3.3269,3.3303,3.3334,3.3364,3.3394,3.3419,3.3465,3.3502,3.3533,3.3582,3.3615,3.3631,3.3639,3.367,3.3668,3.3665,3.3668,3.3689,3.3688,3.3687,3.3699,3.3699,3.3699,0,0,3.3133,3.3168,3.3191,3.3226,3.3278,3.3313,3.3319,3.3378,3.3401,3.3439,3.3476,3.3505,3.3565,3.3599,3.3625,3.3627,3.3652,3.3637,3.3623,3.3642,3.3641,3.3641,3.3643,3.3644,3.3638,3.3638,3.3638,0,3.3105,3.3154,3.3199,3.323,3.3257,3.3301,3.3326,3.3357,3.3418,3.3436,3.3445,3.3523,3.3559,3.3602,3.3603,3.3621,3.363,3.3631,3.3637,3.3637,3.3638,3.3641,3.3642,3.3636,3.3636,3.3637,3.3637,0,3.3118,3.3151,3.3164,3.3224,3.3252,3.3278,3.3329,3.3353,3.338,3.3415,3.3455,3.35,3.3547,3.3559,3.3585,3.3607,3.3611,3.3628,3.3643,3.3634,3.3638,3.364,3.3633,3.3634,3.3635,3.3635,0,0,3.307,3.3157,3.3161,3.319,3.3253,3.328,3.331,3.3358,3.3378,3.3419,3.3447,3.3498,3.3516,3.3544,3.3575,3.3592,3.3594,3.3607,3.3609,3.3605,3.3623,3.3611,3.3612,3.3611,3.3611,3.3612,3.362,0,3.3066,3.3122,3.3166,3.3206,3.324,3.3284,3.3311,3.3353,3.3387,3.342,3.3457,3.3494,3.3513,3.3531,3.3549,3.3589,3.3598,3.3589,3.3638,3.3639,3.3626,3.3614,3.36,3.3605,3.3622,3.3622,3.3622,0,3.3068,3.311,3.3154,3.3217,3.3232,3.3255,3.3304,3.3335,3.3384,3.3408,3.3442,3.3475,3.351,3.3522,3.3572,3.3565,3.3588,3.3611,3.3612,3.3619,3.3631,3.3621,3.3608,3.3609,3.3625,3.3624,3.3624,0,3.3031,3.3098,3.3135,3.3158,3.3231,3.3247,3.3278,3.3328,3.3355,3.3398,3.3416,3.3462,3.3487,3.3522,3.3567,3.3571,3.3613,3.3628,3.3635,3.3634,3.3642,3.3641,3.3633,3.3654,3.3654,3.3654,3.3654,0,3.3023,3.3048,3.312,3.3142,3.3173,3.3224,3.3253,3.3288,3.3333,3.3363,3.3404,3.3432,3.3489,3.3524,3.3559,3.3596,3.3607,3.3628,3.3637,3.3625,3.3623,3.3641,3.3642,3.3655,3.3655,3.3655,3.3654,0,3.2987,3.3036,3.3079,3.3145,3.3163,3.3183,3.3241,3.3265,3.3302,3.334,3.3352,3.3411,3.3454,3.3503,3.3562,3.3586,3.3622,3.3634,3.3605,3.3611,3.3616,3.3615,3.362,3.3625,3.3641,3.3641,3.3641,0,3.2979,3.3,3.307,3.3094,3.3125,3.3163,3.3192,3.3243,3.3271,3.3331,3.3348,3.3395,3.3436,3.3504,3.3551,3.3598,3.3612,3.3611,3.3619,3.3608,3.3615,3.3613,3.3617,3.3609,3.3608,3.3608,3.3607,0,3.296,3.2984,3.3024,3.3073,3.3107,3.3148,3.3191,3.3208,3.3268,3.3298,3.3344,3.3376,3.3438,3.3485,3.3538,3.357,3.3599,3.3605,3.3609,3.3597,3.3581,3.3592,3.36,3.3604,3.3605,3.3605,3.3605,3.3605,3.2939,3.2962,3.3016,3.306,3.3098,3.3138,3.3164,3.3206,3.3246,3.3301,3.3329,3.3376,3.3427,3.3501,3.3533,3.3571,3.358,3.3585,3.3587,3.3588,3.3586,3.3574,3.358,3.358,3.3581,3.3581,3.3581,0,3.2925,3.2962,3.3002,3.3062,3.3097,3.3123,3.3172,3.32,3.3241,3.3287,3.3327,3.3381,3.3428,3.348,3.353,3.355,3.3565,3.3562,3.3561,3.3569,3.3574,3.3566,3.3549,3.3549,3.3549,3.3549,3.3549,3.3549,3.2921,3.2961,3.2992,3.3052,3.309,3.3137,3.3163,3.3201,3.3238,3.3297,3.3337,3.3371,3.342,3.3475,3.3519,3.3534,3.3551,3.3544,3.3562,3.3566,3.3568,3.3571,3.3564,3.3547,3.3547,3.3554,3.3554,3.3554]}]]